Location: *
(50.6089°N, 2.2719°E)
Time: 01:55:58
(UTC+00:00)

STARLINK-43 - Pass Details

Date: 18 October 2019
Orbit: 478 x 481 km, 53.0° (Epoch: 11 November)

Event Time Altitude Azimuth Distance (km) Brightness Sun altitude
Rises 18:17:16 0° 280° (W) 2,535 8.9 -14.0°
Reaches altitude 10° 18:19:27 10° 284° (WNW) 1,656 7.4 -14.4°
Maximum altitude 18:23:09 59° 5° (N) 558 3.6 -14.9°
Enters shadow 18:24:49 29° 74° (ENE) 897 4.2 -15.2°
